Cuero, Texas, United States (77954)
Lat: 29.09N, Lon: 97.29W
Wx Zone: TXZ224
Local Info
Past Weather Observations for Today

NOTE: This archive is for the closest National Weather Service station to Cuero. Information may differ from the station used for current weather conditions.

Click here for Long-term Archive

Time Weather Temperature Dewpoint Humidity Pressure Winds Precip Visibility
16:51
Overcast
Hazy
81°F / 27°C 75°F / 24°C 84% 29.62 in
(1003 mb)
S 15 mph
(S 24 kph)
- 5SM
16:44
Overcast
Hazy
81°F / 27°C 75°F / 24°C 84% 29.62 in
(1003 mb)
SSE 16.1 mph
(SSE 26 kph)
- 5SM
15:58
Overcast
Hazy
82°F / 28°C 73°F / 23°C 74% 29.62 in
(1003 mb)
S 18.4 mph
(S 30 kph)
- 6SM
15:51
Overcast
Hazy
82°F / 28°C 73°F / 23°C 74% 29.62 in
(1003 mb)
S 19.6 mph
(S 32 kph)
- 6SM
15:14
Overcast
Hazy
82°F / 28°C 73°F / 23°C 74% 29.62 in
(1003 mb)
S 18.4 mph
(S 30 kph)
- 6SM
14:51
Overcast
Hazy
82°F / 28°C 73°F / 23°C 74% 29.65 in
(1004 mb)
S 20.7 mph
(S 33 kph)
- 6SM
14:25
Overcast
Hazy
82°F / 28°C 73°F / 23°C 74% 29.65 in
(1004 mb)
SSE 19.6 mph
(SSE 32 kph)
- 6SM
13:52
Overcast
Hazy
82°F / 28°C 73°F / 23°C 74% 29.68 in
(1005 mb)
S 19.6 mph
(S 32 kph)
- 6SM
13:51
Overcast
82°F / 28°C 73°F / 23°C 74% 29.68 in
(1005 mb)
S 19.6 mph
(S 32 kph)
- 8SM
12:51
Mostly Cloudy
Hazy
84°F / 29°C 73°F / 23°C 70% 29.68 in
(1005 mb)
SSE 24.2 mph
(SSE 39 kph)
- 6SM
11:54
Mostly Cloudy
Hazy
82°F / 28°C 72°F / 22°C 70% 29.68 in
(1005 mb)
S 18.4 mph
(S 30 kph)
- 6SM
11:51
Mostly Cloudy
82°F / 28°C 72°F / 22°C 70% 29.68 in
(1005 mb)
S 17.3 mph
(S 28 kph)
- 10SM
10:51
Overcast
82°F / 28°C 72°F / 22°C 70% 29.71 in
(1006 mb)
S 21.9 mph
(S 35 kph)
- 10SM
10:37
Overcast
82°F / 28°C 72°F / 22°C 70% 29.71 in
(1006 mb)
SSE 24.2 mph
(SSE 39 kph)
- 10SM
09:51
Overcast
81°F / 27°C 73°F / 23°C 79% 29.74 in
(1007 mb)
SSE 26.5 mph
(SSE 43 kph)
- 9SM
08:51
Overcast
79°F / 26°C 72°F / 22°C 79% 29.71 in
(1006 mb)
SSE 24.2 mph
(SSE 39 kph)
- 7SM
07:51
Overcast
Fog And Mist
77°F / 25°C 73°F / 23°C 89% 29.71 in
(1006 mb)
SE 18.4 mph
(SE 30 kph)
- 5SM
07:17
Overcast
Fog And Mist
77°F / 25°C 73°F / 23°C 89% 29.71 in
(1006 mb)
SE 16.1 mph
(SE 26 kph)
- 3SM
07:07
Overcast
Fog And Mist
77°F / 25°C 73°F / 23°C 89% 29.71 in
(1006 mb)
SE 15 mph
(SE 24 kph)
- 3SM
07:00
Overcast
Fog And Mist
77°F / 25°C 73°F / 23°C 89% 29.71 in
(1006 mb)
SE 15 mph
(SE 24 kph)
- 2 1/2SM
06:51
Overcast
Fog And Mist
75°F / 24°C 73°F / 23°C 94% 29.71 in
(1006 mb)
SSE 16.1 mph
(SSE 26 kph)
- 1 3/4SM
06:49
Overcast
Fog And Mist
75°F / 24°C 75°F / 24°C 100% 29.71 in
(1006 mb)
SE 16.1 mph
(SE 26 kph)
- 1 1/2SM
06:39
Overcast
Fog And Mist
75°F / 24°C 75°F / 24°C 100% 29.71 in
(1006 mb)
SE 16.1 mph
(SE 26 kph)
- 1 1/4SM
06:28
Overcast
Fog And Mist
77°F / 25°C 75°F / 24°C 94% 29.71 in
(1006 mb)
SE 13.8 mph
(SE 22 kph)
- 1 1/2SM
06:20
Overcast
Fog And Mist
77°F / 25°C 73°F / 23°C 89% 29.71 in
(1006 mb)
SE 17.3 mph
(SE 28 kph)
- 2SM
05:51
Overcast
Fog And Mist
77°F / 25°C 73°F / 23°C 89% 29.71 in
(1006 mb)
SE 13.8 mph
(SE 22 kph)
- 4SM
05:41
Overcast
Fog And Mist
77°F / 25°C 73°F / 23°C 89% 29.71 in
(1006 mb)
SE 12.7 mph
(SE 20 kph)
- 4SM
05:05
Overcast
Fog And Mist
77°F / 25°C 73°F / 23°C 89% 29.71 in
(1006 mb)
SE 17.3 mph
(SE 28 kph)
- 4SM
04:51
Overcast
Fog And Mist
79°F / 26°C 73°F / 23°C 84% 29.71 in
(1006 mb)
SE 15 mph
(SE 24 kph)
- 4SM
04:41
Overcast
Fog And Mist
79°F / 26°C 73°F / 23°C 84% 29.71 in
(1006 mb)
SSE 16.1 mph
(SSE 26 kph)
- 4SM
03:51
Overcast
Fog And Mist
79°F / 26°C 75°F / 24°C 89% 29.71 in
(1006 mb)
SE 17.3 mph
(SE 28 kph)
- 4SM
02:51
Overcast
Fog And Mist
79°F / 26°C 75°F / 24°C 89% 29.74 in
(1007 mb)
SE 17.3 mph
(SE 28 kph)
- 4SM
01:51
Overcast
Fog And Mist
79°F / 26°C 75°F / 24°C 89% 29.74 in
(1007 mb)
SE 15 mph
(SE 24 kph)
- 4SM
00:51
Overcast
Fog And Mist
77°F / 25°C 75°F / 24°C 94% 29.74 in
(1007 mb)
SE 11.5 mph
(SE 19 kph)
- 4SM
00:48
Overcast
Fog And Mist
77°F / 25°C 75°F / 24°C 94% 29.74 in
(1007 mb)
SE 11.5 mph
(SE 19 kph)
- 4SM
00:38
Overcast
Fog And Mist
77°F / 25°C 75°F / 24°C 94% 29.74 in
(1007 mb)
SE 11.5 mph
(SE 19 kph)
- 5SM
Time Weather Temperature Dewpoint Humidity Pressure Winds Precip Visibility


Weather for websites

WeatherForYou.com, LLC is not responsible for any damages or problems caused by this service. Current weather conditions are obtained from the closest station including government and personal stations which may have varying degrees of accuracy. Weather forecasts are derived from the NOAA NDFD. Like all things, this site belongs to Jesus Christ... He just trusts us to maintain it. If you have any questions or comments email webmaster@weatherforyou.com

Copyright © 2016, WeatherForYou.com LLC. All rights reserved.